Terug naar catalogus

SL-12 DEB

LostHEO
NORAD 26849·DEBRIS·🇷🇺 Russia

Gelanceerd Dec 24, 1985 vanaf Baikonur Cosmodrome

Loading…

Volgende Passages (komende 24 uur)

TLE

VerouderdSource: Space-Track

Epoch: Oct 27, 2025, 08:40 UTC

1 26849U 85118AC  25300.36177660 -.00000027  00000-0  00000-0 0  9998
2 26849  60.9146  31.2587 4142586  78.7309 357.8574  5.16634789  2535

Volg SL-12 DEB in realtime met AllMySat

Download on the App Store